DW7061 Weather Reports


Display with metric or nautical units.
time (UTC)temp
F
wind
direction
speed
MPH
gust
MPH
rain 1hr
in
rain 24hr
in
rain mn
in
humidity
%
barometer
mb
20260503222016 49 0.0 2.0 0.00 0.00 0.00 44 1007.1
20260503221057 49 270 1.0 4.0 0.00 0.00 0.00 43 1007.0
20260503220016 48 270 1.0 4.0 0.00 0.00 0.00 44 1007.1
20260503215016 48 248 3.0 7.0 0.00 0.00 0.00 44 1007.0
20260503214016 48 248 2.0 8.0 0.00 0.00 0.00 45 1007.0
20260503213017 48 45 1.0 7.0 0.00 0.00 0.00 45 1007.0
20260503212016 49 270 3.0 11.0 0.00 0.00 0.00 42 1007.0
20260503211016 49 270 1.0 6.0 0.00 0.00 0.00 42 1006.8
20260503210016 49 248 2.0 6.0 0.00 0.00 0.00 42 1006.6
20260503205516 49 270 1.0 8.0 0.00 0.00 0.00 42 1006.7
20260503204516 49 248 3.0 10.0 0.00 0.00 0.00 41 1006.6
20260503203536 48 248 1.0 6.0 0.00 0.00 0.00 43 1006.6
20260503202516 48 248 3.0 9.0 0.00 0.00 0.00 43 1006.5
20260503201516 48 248 2.0 6.0 0.00 0.00 0.00 43 1006.3
20260503200516 48 270 2.0 9.0 0.00 0.00 0.00 43 1006.4
20260503195516 48 225 3.0 12.0 0.00 0.00 0.00 43 1006.4
20260503194518 48 270 2.0 8.0 0.00 0.00 0.00 44 1006.6
20260503193516 48 248 2.0 6.0 0.00 0.00 0.00 44 1006.6
20260503192517 47 248 3.0 8.0 0.00 0.00 0.00 45 1006.6
20260503191515 47 248 2.0 9.0 0.00 0.00 0.00 45 1006.5
20260503190516 48 248 1.0 6.0 0.00 0.00 0.00 45 1006.5
20260503185516 48 248 3.0 10.0 0.00 0.00 0.00 47 1006.5
20260503184536 48 248 3.0 10.0 0.00 0.00 0.00 47 1006.5
20260503183516 48 270 2.0 9.0 0.00 0.00 0.00 47 1006.5
20260503182536 49 248 3.0 9.0 0.00 0.00 0.00 45 1006.3
20260503181537 49 270 1.0 4.0 0.00 0.00 0.00 46 1006.5
20260503180516 48 270 2.0 9.0 0.00 0.00 0.00 49 1006.4
20260503175516 47 225 3.0 10.0 0.00 0.00 0.00 49 1006.4
20260503174516 48 248 2.0 8.0 0.00 0.00 0.00 44 1006.4
20260503173517 48 270 2.0 10.0 0.00 0.00 0.00 42 1006.4
20260503172536 48 270 2.0 9.0 0.00 0.00 0.00 43 1006.3
20260503171516 48 23 1.0 5.0 0.00 0.00 0.00 46 1006.3
20260503170516 47 0.0 4.0 0.00 0.00 0.00 50 1006.3
20260503150518 47 248 1.0 5.0 0.00 0.00 0.00 51 1006.4
20260503130518 42 248 1.0 4.0 0.00 0.00 0.00 75 1007.0
20260503110517 36 0.0 0.0 0.00 0.00 0.00 81 1007.0
20260503081517 36 0.0 1.0 0.00 0.00 0.00 77 1007.4
20260503080517 36 0.0 0.0 0.00 0.00 0.00 77 1007.6
20260503072518 36 0.0 0.0 0.00 0.00 0.00 75 1007.9
20260503071517 37 0.0 0.0 0.00 0.00 0.00 75 1007.7
20260503070518 37 0.0 0.0 0.00 0.00 0.00 74 1007.8
20260503054517 38 0.0 0.0 0.00 0.00 0.00 70 1008.9
20260503053517 39 0.0 1.0 0.00 0.00 0.00 71 1009.0
20260503052538 39 0.0 0.0 0.00 0.00 0.00 69 1009.1
20260503051518 39 0.0 0.0 0.00 0.00 0.00 68 1009.1
20260503050517 39 0.0 0.0 0.00 0.00 0.00 68 1009.1
20260503045517 39 0.0 0.0 0.00 0.00 0.00 68 1009.1
20260503044517 40 0.0 0.0 0.00 0.00 0.00 67 1009.3
20260503043518 40 0.0 0.0 0.00 0.00 0.00 65 1009.3
20260503042517 40 0.0 1.0 0.00 0.00 0.00 67 1009.3
20260503041537 40 0.0 1.0 0.00 0.00 0.00 67 1009.5
20260503040517 40 0.0 0.0 0.00 0.00 0.00 67 1009.5
20260503035517 40 0.0 0.0 0.00 0.00 0.00 65 1009.5
20260503034516 40 0.0 0.0 0.00 0.00 0.00 65 1009.8
20260503033516 40 0.0 0.0 0.00 0.00 0.00 68 1009.8
20260503032517 40 0.0 0.0 0.00 0.00 0.00 67 1010.0
20260503031516 40 0.0 0.0 0.00 0.00 0.00 65 1009.9
20260503030516 41 0.0 1.0 0.00 0.00 0.00 64 1010.1
20260503025517 41 0.0 0.0 0.00 0.00 0.00 67 1010.1
20260503024518 42 0.0 1.0 0.00 0.00 0.00 62 1010.1
20260503023516 42 0.0 1.0 0.00 0.00 0.00 60 1010.1
20260503022516 42 0.0 1.0 0.00 0.00 0.00 59 1010.0
20260503021517 43 0.0 1.0 0.00 0.00 0.00 59 1010.1
20260503020516 43 0.0 1.0 0.00 0.00 0.00 57 1010.2
20260503015516 43 0.0 2.0 0.00 0.00 0.00 58 1010.2
20260503014516 43 0.0 3.0 0.00 0.00 0.00 58 1010.3
20260503013517 43 0.0 2.0 0.00 0.00 0.00 57 1010.3
20260503012536 44 0.0 3.0 0.00 0.00 0.00 58 1010.3
20260503011516 44 0.0 1.0 0.00 0.00 0.00 59 1010.3
20260503010516 45 0.0 0.0 0.00 0.00 0.00 58 1010.1
20260503005517 45 0.0 1.0 0.00 0.00 0.00 57 1010.1
20260503004516 45 0.0 1.0 0.00 0.00 0.00 54 1009.9
20260503003516 46 248 1.0 3.0 0.00 0.00 0.00 53 1009.8
20260503002517 46 248 1.0 4.0 0.00 0.00 0.00 55 1009.7
20260503001516 46 0.0 3.0 0.00 0.00 0.00 55 1009.6
20260503000516 46 0.0 1.0 0.00 0.00 0.00 56 1009.4
20260502235516 47 0.0 1.0 0.00 0.00 0.00 59 1009.4
20260502234516 47 0.0 1.0 0.00 0.00 0.00 60 1009.3
20260502233516 48 0.0 1.0 0.00 0.00 0.00 59 1009.2
20260502232516 49 0.0 2.0 0.00 0.00 0.00 59 1009.1
20260502231519 49 0.0 1.0 0.00 0.00 0.00 60 1009.0
20260502230516 49 0.0 3.0 0.00 0.00 0.00 60 1008.9
20260502225516 49 0.0 0.0 0.00 0.00 0.00 64 1008.8
20260502224516 49 0.0 1.0 0.00 0.00 0.00 63 1008.7
20260502224016 50 0.0 1.0 0.00 0.00 0.00 65 1008.8
20260502223017 50 0.0 0.0 0.00 0.00 0.00 67 1008.7